Terminal Aerodrome Forecast
Issued by NWS Twin Cities, MN

Home | Current Version | Previous Version | Graphics & Text | Print | Product List | Glossary On
Versions: 1 2 3 4 5 6 7 8 9 10 11 12 13 14 15 16 17 18 19 20 21 22 23 24 25 26 27 28
000
FTUS43 KMPX 252036 AAA
TAFMSP
TAF AMD
KMSP 252036Z 2521/2624 06012KT P6SM OVC020
     FM260100 06010KT P6SM OVC017
     FM260500 04007KT 6SM -RA BR OVC012
     FM260800 03007KT 4SM -DZ BR SCT005 OVC007
     FM261500 03006KT P6SM OVC015=

USA.gov is the U.S. government's official web portal to all federal, state and local government web resources and services.